When you browse on this site, cookies collect data to enhance your experience and personalize the content and advertising you see.
Visit our Privacy Policy to learn more. By continuing to use the site, you agree to this use of cookies and data.
  • In Netherlands
  • List of Countries
  • For 7 days
  • Water Temperature
  • Weather Map
  • Weather Widgets
  • user-avatar
    Login

    Hourly Weather Dzhurmachi

    Today, 14 October, Monday

    Time Temperature Precipitation Wind Pressure Humidity
    00:00 +13°C° 0 mm 2 mps 687 mmHg 49%
    01:00 +13°C° 0 mm 1 mps 687 mmHg 46%
    02:00 +13°C° 0 mm 1 mps 687 mmHg 44%
    03:00 +12°C° 0 mm 1 mps 687 mmHg 42%
    04:00 +12°C° 0 mm 1 mps 687 mmHg 40%
    05:00 +12°C° 0 mm 1 mps 687 mmHg 39%
    06:00 +12°C° 0 mm 1 mps 687 mmHg 37%
    07:00 +15°C° 0 mm 1 mps 687 mmHg 35%
    08:00 +18°C° 0 mm 1 mps 688 mmHg 32%
    09:00 +20°C° 0 mm 1 mps 689 mmHg 30%
    10:00 +21°C° 0 mm 1 mps 689 mmHg 32%
    11:00 +20°C° 0 mm 2 mps 689 mmHg 33%
    12:00 +21°C° 0 mm 2 mps 688 mmHg 35%
    13:00 +20°C° 0 mm 2 mps 688 mmHg 38%
    14:00 +20°C° 0 mm 2 mps 688 mmHg 41%
    15:00 +20°C° 0 mm 2 mps 688 mmHg 43%
    16:00 +19°C° 0 mm 1 mps 687 mmHg 50%
    17:00 +16°C° 0 mm 1 mps 687 mmHg 57%
    18:00 +13°C° 0 mm 0 mps 686 mmHg 64%
    19:00 +14°C° 0 mm 1 mps 687 mmHg 63%
    20:00 +14°C° 0 mm 1 mps 687 mmHg 63%
    21:00 +14°C° 0 mm 1 mps 687 mmHg 62%
    22:00 +14°C° 0 mm 1 mps 687 mmHg 60%
    23:00 +14°C° 0 mm 1 mps 686 mmHg 58%

    Tomorrow, 15 October, Tuesday

    Time Temperature Precipitation Wind Pressure Humidity
    00:00 +13°C° 0 mm 1 mps 686 mmHg 56%
    01:00 +13°C° 0 mm 1 mps 686 mmHg 54%
    02:00 +13°C° 0 mm 1 mps 686 mmHg 51%
    03:00 +13°C° 0 mm 1 mps 685 mmHg 49%
    04:00 +13°C° 0 mm 1 mps 685 mmHg 46%
    05:00 +13°C° 0 mm 2 mps 685 mmHg 43%
    06:00 +13°C° 0 mm 2 mps 684 mmHg 40%
    07:00 +15°C° 0 mm 1 mps 685 mmHg 37%
    08:00 +19°C° 0 mm 1 mps 686 mmHg 34%
    09:00 +21°C° 0 mm 1 mps 686 mmHg 31%
    10:00 +22°C° 0 mm 1 mps 686 mmHg 31%
    11:00 +23°C° 0 mm 1 mps 686 mmHg 31%
    12:00 +23°C° 0 mm 2 mps 685 mmHg 31%
    13:00 +23°C° 0 mm 2 mps 685 mmHg 34%
    14:00 +23°C° 0 mm 2 mps 684 mmHg 36%
    15:00 +23°C° 0 mm 1 mps 684 mmHg 39%
    16:00 +21°C° 0 mm 1 mps 684 mmHg 43%
    17:00 +19°C° 0 mm 1 mps 683 mmHg 48%
    18:00 +16°C° 0 mm 1 mps 683 mmHg 52%
    19:00 +16°C° 0 mm 1 mps 683 mmHg 49%
    20:00 +16°C° 0 mm 1 mps 683 mmHg 45%
    21:00 +16°C° 0 mm 1 mps 683 mmHg 41%
    22:00 +15°C° 0 mm 1 mps 683 mmHg 39%
    23:00 +15°C° 0 mm 2 mps 683 mmHg 37%

    Day after tomorrow, 16 October, Wednesday

    Time Temperature Precipitation Wind Pressure Humidity
    00:00 +15°C° 0 mm 2 mps 682 mmHg 35%
    01:00 +15°C° 0 mm 2 mps 682 mmHg 35%
    02:00 +15°C° 0 mm 2 mps 682 mmHg 35%
    03:00 +14°C° 0 mm 2 mps 682 mmHg 35%
    04:00 +14°C° 0 mm 2 mps 682 mmHg 36%
    05:00 +14°C° 0 mm 2 mps 682 mmHg 37%
    06:00 +14°C° 0 mm 2 mps 682 mmHg 37%
    07:00 +16°C° 0 mm 1 mps 683 mmHg 36%
    08:00 +19°C° 0 mm 1 mps 684 mmHg 34%
    09:00 +21°C° 0 mm 1 mps 684 mmHg 32%
    10:00 +21°C° 0 mm 1 mps 684 mmHg 33%
    11:00 +21°C° 0 mm 2 mps 684 mmHg 33%
    12:00 +23°C° 0 mm 2 mps 684 mmHg 34%
    13:00 +21°C° 0 mm 2 mps 684 mmHg 39%
    14:00 +20°C° 0 mm 2 mps 684 mmHg 44%
    15:00 +20°C° 0 mm 2 mps 683 mmHg 48%
    16:00 +19°C° 0 mm 1 mps 683 mmHg 57%
    17:00 +16°C° 0 mm 1 mps 683 mmHg 65%
    18:00 +13°C° 0 mm 0 mps 683 mmHg 74%
    19:00 +14°C° 0 mm 1 mps 683 mmHg 72%
    20:00 +14°C° 0 mm 1 mps 683 mmHg 70%
    21:00 +14°C° 0 mm 1 mps 684 mmHg 68%
    22:00 +13°C° 0 mm 1 mps 684 mmHg 68%
    23:00 +13°C° 0 mm 1 mps 683 mmHg 67%

    17 October, Thursday

    Time Temperature Precipitation Wind Pressure Humidity
    00:00 +13°C° 0 mm 1 mps 683 mmHg 67%
    01:00 +13°C° 0 mm 1 mps 683 mmHg 65%
    02:00 +13°C° 0 mm 1 mps 683 mmHg 63%
    03:00 +13°C° 0 mm 1 mps 683 mmHg 61%
    04:00 +12°C° 0 mm 1 mps 683 mmHg 58%
    05:00 +12°C° 0 mm 1 mps 683 mmHg 55%
    06:00 +12°C° 0 mm 1 mps 683 mmHg 52%
    07:00 +14°C° 0 mm 1 mps 684 mmHg 48%
    08:00 +16°C° 0 mm 1 mps 684 mmHg 44%
    09:00 +19°C° 0 mm 1 mps 685 mmHg 40%
    10:00 +19°C° 0 mm 2 mps 685 mmHg 39%
    11:00 +20°C° 0 mm 2 mps 685 mmHg 39%
    12:00 +20°C° 0 mm 2 mps 685 mmHg 38%
    13:00 +20°C° 0 mm 2 mps 684 mmHg 41%
    14:00 +19°C° 0 mm 2 mps 684 mmHg 44%
    15:00 +19°C° 0 mm 2 mps 684 mmHg 48%
    16:00 +17°C° 0 mm 2 mps 683 mmHg 54%
    17:00 +16°C° 0 mm 1 mps 683 mmHg 61%
    18:00 +14°C° 0 mm 1 mps 682 mmHg 68%
    19:00 +14°C° 0 mm 1 mps 682 mmHg 65%
    20:00 +14°C° 0 mm 1 mps 683 mmHg 63%
    21:00 +14°C° 0 mm 1 mps 683 mmHg 60%
    22:00 +14°C° 0 mm 1 mps 682 mmHg 56%
    23:00 +14°C° 0 mm 1 mps 682 mmHg 53%

    18 October, Friday

    Time Temperature Precipitation Wind Pressure Humidity
    00:00 +14°C° 0 mm 1 mps 682 mmHg 49%
    01:00 +14°C° 0 mm 1 mps 681 mmHg 47%
    02:00 +14°C° 0 mm 1 mps 681 mmHg 44%
    03:00 +13°C° 0 mm 2 mps 681 mmHg 42%
    04:00 +13°C° 0 mm 2 mps 681 mmHg 41%
    05:00 +13°C° 0 mm 2 mps 681 mmHg 41%
    06:00 +13°C° 0 mm 1 mps 681 mmHg 41%
    07:00 +15°C° 0 mm 1 mps 681 mmHg 38%
    08:00 +19°C° 0 mm 1 mps 682 mmHg 36%
    09:00 +21°C° 0 mm 1 mps 682 mmHg 33%
    10:00 +21°C° 0 mm 1 mps 682 mmHg 34%
    11:00 +21°C° 0 mm 2 mps 682 mmHg 34%
    12:00 +21°C° 0 mm 2 mps 682 mmHg 35%
    13:00 +21°C° 0 mm 2 mps 682 mmHg 38%
    14:00 +21°C° 0 mm 2 mps 681 mmHg 42%
    15:00 +20°C° 0 mm 2 mps 681 mmHg 45%
    16:00 +19°C° 0 mm 1 mps 681 mmHg 51%
    17:00 +18°C° 0 mm 1 mps 681 mmHg 57%
    18:00 +14°C° 0 mm 0 mps 680 mmHg 62%
    19:00 +15°C° 0 mm 1 mps 681 mmHg 60%
    20:00 +15°C° 0 mm 1 mps 681 mmHg 58%
    21:00 +15°C° 0 mm 1 mps 681 mmHg 57%
    22:00 +15°C° 0 mm 1 mps 681 mmHg 56%
    23:00 +14°C° 0 mm 1 mps 681 mmHg 56%

    19 October, Saturday

    Time Temperature Precipitation Wind Pressure Humidity
    00:00 +14°C° 0 mm 1 mps 681 mmHg 56%
    01:00 +14°C° 0 mm 1 mps 681 mmHg 57%
    02:00 +13°C° 0 mm 1 mps 681 mmHg 58%
    03:00 +13°C° 0 mm 1 mps 681 mmHg 58%
    04:00 +12°C° 0 mm 0 mps 681 mmHg 60%
    05:00 +11°C° 0 mm 0 mps 682 mmHg 61%
    06:00 +11°C° 0 mm 0 mps 682 mmHg 62%
    07:00 +13°C° 0 mm 1 mps 683 mmHg 60%
    08:00 +15°C° 0 mm 1 mps 683 mmHg 57%
    09:00 +16°C° 0 mm 1 mps 684 mmHg 54%
    10:00 +16°C° 0.2 mm 1 mps 684 mmHg 58%
    11:00 +16°C° 0.2 mm 1 mps 684 mmHg 62%
    12:00 +16°C° 0.2 mm 2 mps 684 mmHg 65%
    13:00 +16°C° 0.2 mm 2 mps 684 mmHg 68%
    14:00 +16°C° 0.2 mm 1 mps 684 mmHg 70%
    15:00 +16°C° 0.2 mm 1 mps 684 mmHg 73%
    16:00 +14°C° 0 mm 1 mps 683 mmHg 79%
    17:00 +13°C° 0 mm 1 mps 683 mmHg 85%
    18:00 +12°C° 0 mm 1 mps 683 mmHg 91%
    19:00 +12°C° 0 mm 1 mps 683 mmHg 91%
    20:00 +12°C° 0 mm 1 mps 684 mmHg 91%
    21:00 +12°C° 0 mm 1 mps 684 mmHg 91%
    22:00 +12°C° 0 mm 1 mps 684 mmHg 91%
    23:00 +12°C° 0 mm 1 mps 684 mmHg 90%
    Show more